Lancaster, OH

8:05 PM EST on February 24, 2018 (GMT -0500)
Fairfield County

Weather History for KLHQ - May, 2013

Change the Weather History Date:

Saturday, May 4, 2013

  Actual Average Record
Temperature  
Mean Temperature 61 °F -  
Max Temperature 70 °F 66 °F 88 °F (1938)
Min Temperature 53 °F 41 °F 26 °F (2005)
Degree Days  
Heating Degree Days 4    
Growing Degree Days 11 (Base 50)    
Moisture  
Dew Point 43 °F    
Average Humidity 50    
Maximum Humidity 66    
Minimum Humidity 40    
Precipitation  
Precipitation 0.00 in - - ()
Sea Level Pressure  
Sea Level Pressure 30.05 in    
Wind  
Wind Speed 11 mph (SE)    
Max Wind Speed 21 mph    
Max Gust Speed 26 mph    
Visibility 10 miles    
Events      
Averages and records for this station are not official NWS values.
T = Trace of Precipitation, MM = Missing Value Source: NWS Daily Summary

Daily Weather History Graph

Daily Weather History Graph

Search for Another Location

Airport or City:

Trip Planner

Search our weather history database for the weather conditions in past years. The results will help you decide how hot, cold, wet, or windy it might be!

Date:

Astronomy

May. 04, 2013 Rise Set
Actual Time 6:27 AM EDT 8:28 PM EDT
Civil Twilight 5:57 AM EDT 8:57 PM EDT
Nautical Twilight 5:21 AM EDT 9:33 PM EDT
Astronomical Twilight 4:42 AM EDT 10:13 PM EDT
Moon 3:24 AM EDT (5/4) 3:25 PM EDT (5/4)
Length of Visible Light 14h 59m
Length of Day
14h 00m
Waning Crescent, 27% of the Moon is Illuminated
May 4
Waning Crescent
May 9
New
May 18
First Quarter
May 25
Full
May 31
Last Quarter

Hourly Weather History & Observations

Time (EDT) Temp. Dew Point Humidity Pressure Visibility Wind Dir Wind Speed Gust Speed Precip Events Conditions
12:53 AM 62.1 °F 41.0 °F 46% 30.08 in 10.0 mi SSE 11.5 mph 23.0 mph N/A   Clear
1:53 AM 60.1 °F 42.1 °F 51% 30.08 in 10.0 mi SSE 9.2 mph - N/A   Clear
2:53 AM 57.0 °F 42.1 °F 57% 30.07 in 10.0 mi SE 6.9 mph - N/A   Clear
3:53 AM 54.0 °F 42.1 °F 64% 30.07 in 10.0 mi ESE 6.9 mph - N/A   Clear
4:53 AM 53.1 °F 42.1 °F 66% 30.07 in 10.0 mi ESE 6.9 mph - N/A   Clear
5:53 AM 54.0 °F 39.9 °F 59% 30.08 in 10.0 mi ESE 9.2 mph - N/A   Clear
6:53 AM 53.1 °F 39.9 °F 61% 30.08 in 10.0 mi SE 4.6 mph - N/A   Clear
7:53 AM 54.0 °F 39.9 °F 59% 30.09 in 10.0 mi ESE 9.2 mph - N/A   Clear
8:53 AM 55.9 °F 37.9 °F 51% 30.09 in 10.0 mi SE 13.8 mph - N/A   Clear
9:53 AM 59.0 °F 37.9 °F 46% 30.09 in 10.0 mi SSE 10.4 mph 20.7 mph N/A   Clear
10:53 AM 62.1 °F 41.0 °F 46% 30.08 in 10.0 mi SE 16.1 mph 19.6 mph N/A   Clear
11:53 AM 64.9 °F 43.0 °F 45% 30.07 in 10.0 mi SSE 12.7 mph 21.9 mph N/A   Clear
12:53 PM 68.0 °F 45.0 °F 43% 30.05 in 10.0 mi SE 16.1 mph 26.5 mph N/A   Clear
1:53 PM 69.1 °F 45.0 °F 42% 30.04 in 10.0 mi SE 17.3 mph 23.0 mph N/A   Clear
2:18 PM 69.8 °F 44.6 °F 40% 30.04 in 10.0 mi ESE 13.8 mph 25.3 mph N/A   Clear
2:53 PM 68.0 °F 45.0 °F 43% 30.03 in 10.0 mi SE 16.1 mph 21.9 mph N/A   Clear
3:53 PM 69.1 °F 45.0 °F 42% 30.01 in 10.0 mi SSE 20.7 mph 26.5 mph N/A   Clear
4:53 PM 69.1 °F 46.9 °F 45% 30.00 in 10.0 mi SE 11.5 mph - N/A   Clear
5:53 PM 69.1 °F 46.0 °F 44% 29.99 in 10.0 mi SSE 11.5 mph - N/A   Clear
6:53 PM 69.1 °F 45.0 °F 42% 30.00 in 10.0 mi SSE 11.5 mph - N/A   Clear
7:53 PM 64.0 °F 46.0 °F 52% 30.01 in 10.0 mi SE 5.8 mph - N/A   Mostly Cloudy
8:53 PM 62.1 °F 45.0 °F 53% 30.02 in 10.0 mi East 3.5 mph - N/A   Clear
9:53 PM 60.1 °F 43.0 °F 53% 30.03 in 10.0 mi East 8.1 mph - N/A   Clear
10:53 PM 61.0 °F 39.0 °F 44% 30.03 in 10.0 mi East 10.4 mph - N/A   Clear
11:53 PM 59.0 °F 39.9 °F 49% 30.03 in 10.0 mi ESE 10.4 mph - N/A   Clear